weather.gov     
National Weather Service

Regional Weather Roundup
NWS Homepage
This page is being discontinued on March 12, 2014.
The same data is available at this site. Please update your bookmarks.
Thank you, and we apologize for the inconvenience.
Please send an email to SR-SRH.Webmaster@noaa.gov with any concerns.


Current Version
Previous Version:    01  02  03  04  05  06  07  08  09  10  11  12  13  14  15  16  17  18  19  20  21  22  23  24  25  26  27  28  29  30  
   31  32  33  34  35  36  37  38  39  40  41  42  43  44  45  46  47  48  49  50  51  52  53  
[Printable]
503
ASUS44 KOUN 260910
RWROK

WEATHER ROUNDUP FOR OKLAHOMA
NATIONAL WEATHER SERVICE NORMAN OK
400 AM CDT SUN OCT 26 2014

NOTE: "FAIR" INDICATES FEW OR NO CLOUDS BELOW 12,000 FEET WITH NO
      SIGNIFICANT WEATHER AND/OR OBSTRUCTIONS TO VISIBILITY.

OKZ001>007-009>012-014-015-017-261000-
NORTHWEST OKLAHOMA AND THE PANHANDLE

CITY           SKY/WX    TMP DP  RH WIND       PRES   REMARKS
GAGE           CLEAR     66  51  58 S16G23    29.89F
ENID/WOODRING    N/A     59  55  88 S7        29.91F
$$

OKZ016-021>023-033>039-044-045-261000-
SOUTHWEST OKLAHOMA

CITY           SKY/WX    TMP DP  RH WIND       PRES   REMARKS
LAWTON/REGL    CLEAR     60  55  83 CALM      29.96F
LAWTON/FT SILL CLEAR     63  56  77 S5        29.95F
FREDERICK      CLEAR     61  53  75 SW5       29.93F
CLINTON        CLEAR     65  51  60 S13       29.95F
HOBART         CLEAR     60  51  72 S8        29.95F
ALTUS AFB      CLEAR     54  51  89 SE5       29.95F
$$

OKZ018>020-024>031-261000-
CENTRAL OKLAHOMA

CITY           SKY/WX    TMP DP  RH WIND       PRES   REMARKS
OKLAHOMA CITY  CLEAR     65  57  75 S10       29.95F
OKC/WILEY POST CLEAR     70  57  63 S15       29.95F
OKC/TINKER AFB CLEAR     66  59  77 S8        29.97F
STILLWATER     CLEAR     63  57  81 S7        29.94F
GUTHRIE        CLEAR     71  58  63 S9        29.94F
$$

OKZ008-013-054>072-261000-
NORTHEAST OKLAHOMA

CITY           SKY/WX    TMP DP  RH WIND       PRES   REMARKS
TULSA          CLEAR     65  61  87 E3        29.96S
TULSA/JONES    CLEAR     59  58  96 CALM      29.96S FOG
PONCA CITY     CLEAR     68  57  68 S5        29.92F
BARTLESVILLE   FOG       53  53 100 CALM      29.96S VSB 1/2
MUSKOGEE       CLEAR     62  60  93 S5        29.99S
$$

OKZ032-040>043-046>053-073>077-261000-
SOUTH CENTRAL/SOUTHEAST OKLAHOMA

CITY           SKY/WX    TMP DP  RH WIND       PRES   REMARKS
ARDMORE/DWNTWN CLEAR     68  57  68 CALM      29.98F
MCALESTER      PTCLDY    65  60  84 S3        29.99F
$$





U.S. Dept. of Commerce
NOAA National Weather Service
1325 East West Highway
Silver Spring, MD 20910
E-mail: w-nws.webmaster@noaa.gov
Page last modified: May 16, 2007
NATIONAL WEATHER SERVICE: for Safety, for Work, for Fun - FOR LIFE